Regional Weather Roundup
Issued by NWS

Home | Current Version | Previous Version | Graphics & Text | Print | Product List | Glossary On
Versions: 1 2 3 4 5 6 7 8 9 10 11 12 13 14 15 16 17 18 19 20 21 22 23 24 25 26 27 28 29 30 31 32 33 34 35 36 37 38 39 40 41 42 43 44 45 46 47 48 49 50
000
ASUS43 KMKX 250200
RWRWI

WISCONSIN REGIONAL WEATHER ROUNDUP
NATIONAL WEATHER SERVICE MILWAUKEE/SULLIVAN WI
900 PM CDT FRI MAR 24 2017

NOTE: "FAIR" INDICATES FEW OR NO CLOUDS BELOW 12,000 FEET WITH NO
SIGNIFICANT WEATHER AND/OR OBSTRUCTIONS TO VISIBILITY.

WIZ001-002-006>008-014>016-023>028-250300-
NORTHWEST WISCONSIN

CITY           SKY/WX    TMP DP  RH WIND       PRES   REMARKS
SUPERIOR ARPT  CLOUDY    36  33  88 NE7       30.25R WCI  30
ASHLAND        CLOUDY    35  32  88 NE10      30.25R WCI  27
HAYWARD        CLOUDY    37  29  72 NE12      30.19F WCI  29
SIREN          CLOUDY    38  32  79 E5        30.19S WCI  34
CUMBERLAND     CLOUDY    36  32  87 NE8       30.17R WCI  29
RICE LAKE      CLOUDY    37  33  85 CALM      30.19R
CHETEK         CLOUDY    37  33  84 N7        30.18R WCI  32
LADYSMITH      CLOUDY    38  34  86 N12       30.17S WCI  30
EAU CLAIRE     NOT AVBL
MENOMONIE      CLOUDY    39  35  84 N8        30.17R WCI  34
NEW RICHMOND   CLOUDY    38  32  80 E9        30.18R WCI  31
OSCEOLA        CLOUDY    39  33  81 NE8       30.21R WCI  33
$$

WIZ003>005-009-010-017-018-250300-
NORTH CENTRAL WISCONSIN

CITY           SKY/WX    TMP DP  RH WIND       PRES   REMARKS
MANITOWISH WTR CLOUDY    33  33 100 N3        30.17R
ARBOR VITAE    CLOUDY    37  34  91 N5        30.16R WCI  33
WOODRUFF       CLOUDY    37  34  91 N5        30.16R WCI  33
RHINELANDER    CLOUDY    36  33  89 NE8       30.17R WCI  30
EAGLE RIVER    CLOUDY    34  33  96 NE7       30.16R WCI  28
LAND O LAKES   CLOUDY    34  34  99 NE7       30.19R FOG     WCI  28
PHILLIPS       CLOUDY    35  32  90 NE10      30.16R WCI  27
TOMAHAWK       CLOUDY    34  32  92 NE3       30.16R
MEDFORD        CLOUDY    35  33  90 NE9       30.14R WCI  28
MERRILL        CLOUDY    36  34  92 NE8       30.15R WCI  29
$$

WIZ029-030-035-036-043>047-250300-
CENTRAL WISCONSIN

CITY           SKY/WX    TMP DP  RH WIND       PRES   REMARKS
WAUSAU         CLOUDY    37  34  89 NE9       30.13R WCI  30
MOSINEE        CLOUDY    36  36 100 N7        30.14R WCI  30
MARSHFIELD     CLOUDY    37  35  92 NE6       30.12R WCI  32
STEVENS POINT  DRIZZLE   35  35 100 NE6       30.13R WCI  30
WAUPACA        LGT RAIN  38  36  92 NE6       30.14R WCI  34
WAUTOMA        RAIN      36  35  96 NE9       30.12R WCI  29
WISC RAPIDS    LGT RAIN  38  37  97 NE8       30.14R WCI  32
CAMP DOUGLAS   LGT RAIN  37  37 100 NE5       30.12R WCI  34
$$

WIZ011>013-019>022-031-037>040-048>050-250300-
NORTHEAST WISCONSIN

CITY           SKY/WX    TMP DP  RH WIND       PRES   REMARKS
ANTIGO         CLOUDY    33  33  96 NE12      30.15R WCI  25
SHAWANO        CLOUDY    38  35  91 NE9       30.14R WCI  31
OCONTO         CLOUDY    36  34  94 NE6       30.15S WCI  31
STURGEON BAY   CLOUDY    35  34  96 MISG      30.16R
GREEN BAY      LGT RAIN  36  36 100 NE14      30.14S FOG     WCI  27
MANITOWOC      NOT AVBL
APPLETON       LGT RAIN  36  36 100 NE14G22   30.09F WCI  27
CLINTONVILLE   DRIZZLE   36  36 100 NE7       30.14R WCI  30
OSHKOSH        LGT RAIN  36  34  92 NE13      30.11R WCI  27
$$

WIZ032>034-041-042-053>061-250300-
SOUTHWEST WISCONSIN

CITY           SKY/WX    TMP DP  RH WIND       PRES   REMARKS
LA CROSSE      LGT RAIN  42  38  85 NE7       30.13R
SPARTA         DRIZZLE   39  37  94 NE8       30.13R WCI  33
VIROQUA        CLOUDY    37  37  98 NE12      30.09R WCI  30
BOSCOBEL       LGT RAIN  42  39  89 NE6       30.09R
PRAIRIE DU CHI LGT RAIN  42  39  89 CALM      30.07R
PLATTEVILLE    MOCLDY    44  42  94 NE14      30.03S
$$

WIZ056-057-062-063-064-067-068-250300-
SOUTH CENTRAL WISCONSIN

CITY           SKY/WX    TMP DP  RH WIND       PRES   REMARKS
REEDSBURG      DRIZZLE   37  37 100 NE6       30.09S WCI  32
BARABOO/DELLS  CLOUDY    37  35  95 NE8       30.09S WCI  30
LONE ROCK      NOT AVBL
MINERAL POINT  CLOUDY    43  41  93 NE15      30.05R
MADISON        CLOUDY    38  35  89 N14       30.08R WCI  30
MIDDLETON      CLOUDY    40  37  87 NE14G20   30.08R WCI  33
WATERTOWN      CLOUDY    40  39  96 N9        30.08R WCI  34
MONROE         LGT RAIN  41  39  93 NE14      30.04R
JANESVILLE     CLOUDY    45  39  81 NE7       30.06R
$$

WIZ051-052-058>065-066-070>072-250300-
SOUTHEAST WISCONSIN

CITY           SKY/WX    TMP DP  RH WIND       PRES   REMARKS
MILWAUKEE      CLOUDY    38  34  85 NE16      30.09R WCI  29
WAUKESHA       CLOUDY    36  34  93 NE12G17   30.07R WCI  27
MILWAUKEE/TIMM CLOUDY    37  32  81 NE14G21   30.07S WCI  29
RACINE         CLOUDY    38  34  85 N16G23    30.10R WCI  29
KENOSHA        LGT RAIN  38  35  89 NE16G22   30.06S WCI  29
FOND DU LAC    CLOUDY    37  34  89 N10       30.12R WCI  30
SHEBOYGAN      CLOUDY    36  33  89 N17G24    30.11R WCI  26
WEST BEND      CLOUDY    36  34  93 NE12G20   30.07F WCI  27
JUNEAU         CLOUDY    37  35  93 N7        30.10R WCI  31
$$

LSZ147-162-250300-
LAKE SUPERIOR

STATION/POSITION TIME  TEMP    WIND        PRES    WAVE
                       AIR SEA DIR/SP/G            HT/PER
                 (UTC) (F)     (DEG/KT/KT) (MB)    (FT/S)
DEVILS ISLAND    0100   35      70/ 14/ 15 1024.6R
PORT WING        0140   37      80/  2/  6 1024.4R
SAXON HARBOR     0140   35      60/  9/ 11 1024.0R
$$

LMZ867-665-643>646-250300-
LAKE MICHIGAN

STATION/POSITION TIME  TEMP    WIND        PRES    WAVE
                       AIR SEA DIR/SP/G            HT/PER
                 (UTC) (F)     (DEG/KT/KT) (MB)    (FT/S)
CHAMBERS ISLAND  0130   34      10/ 10/ 12 1021.0R
NORTHPORT PIER   0140   35      10/ 13/ 16 1021.3R
SISTER BAY       0036   35      20/  9/ 11   N/A
KEWAUNEE LAKESHO 0130   36      30/  9/ 13 1020.4R
SHEBOYGAN LAKESH 0100   36      10/ 19/ 21 1019.6R
PORT WASHINGTON  0140   38      30/ 12/ 19 1019.6R
MILWAUKEE LAKESH 0130   37     360/ 19/ 22   N/A
KENOSHA   LAKESH 0100   38     360/ 21/ 24 1017.9
$$

TC  - TEMPERATURE IN CELSIUS
VSB - VISIBILITY IN STATUTE MILES
WCI - WIND CHILL INDEX
HX  - HEAT INDEX





USA.gov is the U.S. government's official web portal to all federal, state and local government web resources and services.